COSMOS 1953

Last updated on Sat Apr 13 2024 01:02:09 GMT+0100 (British Summer Time)

1 19210U 88050A 24103.58224886 .00005470 00000+0 29916-3 0 9992 2 19210 82.5116 131.0287 0016164 44.2793 315.9729 15.13959783931939
UTC large
Height (km)
Speed (km/s)
/
Latitude / Longitude
Inclination (degrees)
Orbital Period (minutes)
Azimuth
Elevation
Range (km)
Doppler Factor

Next 0 passes for location: London (51.5072 / 0.1276)

Sorry there are no passes over London.